Stations météo

réclame
Mon MeteoGroup
Saarbrücken-Ensheim, Allemagne (10708): Température de l'air & dewpoint: 11.12.2018 01:00:00 - 17.12.2018 01:00:00 (CET)Saarbrücken-Ensheim, Allemagne (10708): Température de l'air 5cm & Température de l'air -5cm: 11.12.2018 01:00:00 - 17.12.2018 01:00:00 (CET)Saarbrücken-Ensheim, Allemagne (10708): Température de l'air -20cm & Température de l'air -100cm: 11.12.2018 01:00:00 - 17.12.2018 01:00:00 (CET)Saarbrücken-Ensheim, Allemagne (10708): Vitesse du vent & gusts: 11.12.2018 01:00:00 - 17.12.2018 01:00:00 (CET)Saarbrücken-Ensheim, Allemagne (10708): Direction du vent: 11.12.2018 01:00:00 - 17.12.2018 01:00:00 (CET)Saarbrücken-Ensheim, Allemagne (10708): reduced air pressure: 11.12.2018 01:00:00 - 17.12.2018 01:00:00 (CET)Saarbrücken-Ensheim, Allemagne (10708): visibility: 11.12.2018 01:00:00 - 17.12.2018 01:00:00 (CET)Saarbrücken-Ensheim, Allemagne (10708): Ensoleillement: 11.12.2018 01:00:00 - 17.12.2018 01:00:00 (CET)Saarbrücken-Ensheim, Allemagne (10708): Quantités de précipitations: 11.12.2018 01:00:00 - 17.12.2018 01:00:00 (CET)
Date & Time tt [°C] td [°C] tt 5cm [°C] tt -5cm [°C] tt -20cm [°C] tt -100cm [°C] ff [km/h] ff [knt] fx [km/h] fx [knt] dd ppp [hPa] vv [km] sd [min] rr [mm]
17.12.2018 01:00:00 2,1 1,9 0,6 0,3 1,8 7,7 4 2 11 6 ESE 1016,4 10 0 0,0
17.12.2018 00:00:00 2,8 2,5 1,7 0,3 1,8 7,7 5 3 11 6 WSW 1016,2 18 0 0,0
16.12.2018 23:00:00 2,7 2,5 2,1 0,3 1,8 7,7 6 3 13 7 SSW 1016,0 9 0 0,0
16.12.2018 22:00:00 2,7 2,4 2,2 0,3 1,8 7,7 8 5 15 8 S 1015,9 4,5 0 0,0
16.12.2018 21:00:00 2,6 2,5 2,3 0,3 1,8 7,7 11 6 16 9 S 1015,6 0,4 0 0,0
16.12.2018 20:00:00 2,8 2,7 2,3 0,3 1,8 7,7 4 2 15 8 - 1015,3 0,8 0 0,0
16.12.2018 19:00:00 2,6 2,4 2,2 0,2 1,8 7,7 9 5 18 10 SW 1015,1 0,4 0 0,0
16.12.2018 18:00:00 2,3 2,3 1,8 0,2 1,8 7,8 13 7 18 10 WSW 1014,7 0,4 0 0,1
16.12.2018 17:00:00 2,2 2,2 1,8 0,2 1,8 7,8 5 3 9 5 SSW 1014,4 0,2 0 0,3
16.12.2018 16:00:00 2,0 2,0 1,6 0,2 1,8 7,8 6 4 11 6 S 1014,2 0,2 0 0,0
16.12.2018 15:00:00 1,9 1,9 1,7 0,1 1,8 7,8 7 4 15 8 S 1013,9 0,2 0 -
16.12.2018 14:00:00 1,2 1,2 1,1 0,1 1,8 7,8 10 6 16 8 WSW 1014,0 0,1 0 -
16.12.2018 13:00:00 1,0 1,0 1,0 0,1 1,8 7,8 5 3 13 7 S 1014,0 0,1 0 0,0
16.12.2018 12:00:00 0,7 0,7 0,8 0,1 1,8 7,8 8 5 13 7 WSW 1014,5 0,1 0 0,0
16.12.2018 11:00:00 -0,1 -0,1 0,0 0,1 1,8 7,8 8 5 11 6 SW 1014,7 0,1 0 0,0
16.12.2018 10:00:00 -0,8 -0,8 -0,7 0,0 1,8 7,8 8 4 13 7 SW 1014,3 0,2 0 0,0
16.12.2018 09:00:00 -1,3 -1,6 -1,3 0,0 1,8 7,9 5 3 11 6 SSW 1013,8 0,5 0 -
16.12.2018 08:00:00 -1,7 -2,2 -1,7 0,0 1,8 7,9 2 1 8 4 ESE 1013,3 1,2 0 0,0
16.12.2018 07:00:00 -2,0 -2,4 -1,5 0,0 1,8 7,9 8 4 9 5 ESE 1013,1 1,6 0 0,1
16.12.2018 06:00:00 -2,3 -3,0 -1,2 0,0 1,8 7,9 8 4 15 8 E 1013,4 2,2 0 0,3
16.12.2018 05:00:00 -2,5 -3,7 -2,4 -0,1 1,8 7,9 11 6 29 16 ESE 1013,4 2,8 0 0,9
16.12.2018 04:00:00 -2,8 -3,7 -2,8 -0,1 1,8 7,9 22 12 31 17 E 1013,7 1,3 0 2,0
16.12.2018 03:00:00 -2,7 -3,8 -2,7 -0,1 1,8 7,9 14 7 21 11 ESE 1015,1 1,4 0 1,1
16.12.2018 02:00:00 -2,5 -4,5 -2,5 -0,1 1,8 7,9 14 8 20 11 SE 1015,5 2,0 0 0,1
16.12.2018 01:00:00 -2,0 -6,1 -2,1 -0,1 1,9 7,9 14 8 24 13 ESE 1016,6 18 0 0,0
16.12.2018 00:00:00 -2,3 -6,3 -2,4 -0,2 1,9 8,0 14 8 22 12 ESE 1017,3 18 0 0,0
15.12.2018 23:00:00 -2,6 -6,4 -2,8 -0,2 1,9 8,0 11 6 22 12 E 1019,0 10 0 0,0
15.12.2018 22:00:00 -2,7 -6,2 -3,1 -0,2 2,0 8,0 9 5 21 11 ESE 1020,0 18 0 0,0
15.12.2018 21:00:00 -3,0 -6,4 -3,8 -0,1 2,0 8,0 15 8 22 12 E 1020,3 10 0 0,0
15.12.2018 20:00:00 -2,7 -6,4 -3,9 0,0 2,0 8,0 13 7 24 13 E 1021,3 10 0 0,0
15.12.2018 19:00:00 -2,9 -6,3 -3,8 0,2 2,1 8,0 15 8 22 12 E 1022,0 10 0 0,0
15.12.2018 18:00:00 -2,8 -6,3 -4,2 0,3 2,1 8,0 13 7 18 10 E 1023,1 20 0 0,0
15.12.2018 17:00:00 -2,1 -6,8 -3,8 0,4 2,1 8,0 15 8 28 15 ESE 1023,3 10 0 0,0
15.12.2018 16:00:00 -1,3 -6,6 -2,1 0,4 2,1 8,1 21 11 31 17 E 1023,6 10 60 0,0
15.12.2018 15:00:00 -0,8 -6,7 -0,7 0,3 2,1 8,1 14 8 23 13 E 1024,2 30 60 0,0
15.12.2018 14:00:00 -1,0 -6,8 -0,7 0,3 2,1 8,1 14 8 23 12 E 1024,6 30 23 0,0
15.12.2018 13:00:00 -1,2 -6,9 -0,6 0,3 2,1 8,1 15 8 27 14 E 1024,9 25 5 0,0
15.12.2018 12:00:00 -1,2 -6,7 -0,6 0,2 2,1 8,1 18 10 27 14 E 1025,4 10 0 0,0
15.12.2018 11:00:00 -1,3 -7,0 -0,9 0,2 2,1 8,1 17 9 26 14 E 1026,2 25 1 0,0
15.12.2018 10:00:00 -1,6 -7,3 -1,6 0,2 2,1 8,1 16 9 25 13 ESE 1026,4 10 0 0,0
15.12.2018 09:00:00 -1,6 -7,2 -1,9 0,1 2,1 8,1 11 6 26 14 ESE 1026,0 25 0 0,0
15.12.2018 08:00:00 -1,7 -6,7 -1,9 0,2 2,1 8,2 9 5 21 11 E 1026,0 10 0 0,0
15.12.2018 07:00:00 -1,6 -6,5 -1,9 0,2 2,1 8,2 12 6 21 11 E 1025,9 25 0 0,0
15.12.2018 06:00:00 -1,6 -6,2 -1,9 0,2 2,1 8,2 9 5 15 8 E 1025,9 25 0 0,0
15.12.2018 05:00:00 -1,5 -6,3 -1,8 0,2 2,1 8,2 13 7 21 11 E 1025,6 10 0 0,0
15.12.2018 04:00:00 -1,5 -6,6 -1,8 0,2 2,2 8,2 8 4 16 9 E 1026,0 25 0 0,0
15.12.2018 03:00:00 -1,4 -6,5 -1,8 0,2 2,2 8,2 8 4 16 9 E 1026,2 25 0 0,0
15.12.2018 02:00:00 -1,3 -6,6 -1,6 0,3 2,2 8,2 11 6 22 12 ESE 1025,5 10 0 0,0
15.12.2018 01:00:00 -1,4 -6,1 -1,7 0,3 2,2 8,2 9 5 16 9 ENE 1025,1 10 0 0,0
15.12.2018 00:00:00 -1,2 -6,6 -1,5 0,3 2,2 8,2 11 6 23 13 ENE 1024,8 10 0 0,0
14.12.2018 23:00:00 -1,3 -6,4 -1,6 0,3 2,2 8,3 13 7 21 11 ENE 1024,8 10 0 0,0
14.12.2018 22:00:00 -1,2 -6,3 -1,5 0,4 2,2 8,3 9 5 15 8 NE 1025,1 10 0 0,0
14.12.2018 21:00:00 -1,1 -6,5 -1,4 0,4 2,2 8,3 9 5 15 8 NE 1025,0 25 0 0,0
14.12.2018 20:00:00 -1,1 -6,2 -1,4 0,4 2,3 8,3 9 5 15 8 ENE 1024,6 25 0 0,0
14.12.2018 19:00:00 -1,0 -6,3 -1,3 0,4 2,3 8,3 9 5 21 11 ENE 1024,4 10 0 0,0
14.12.2018 18:00:00 -0,9 -6,1 -1,2 0,4 2,3 8,3 11 6 22 12 E 1023,5 10 0 0,0
14.12.2018 17:00:00 -0,7 -6,2 -1,0 0,4 2,3 8,3 11 6 23 12 E 1022,7 10 0 0,0
14.12.2018 16:00:00 -0,6 -6,0 -0,8 0,4 2,3 8,3 11 6 26 14 E 1022,3 25 0 0,0
14.12.2018 15:00:00 -0,5 -6,0 -0,6 0,4 2,3 8,4 16 9 25 14 ENE 1021,6 25 0 0,0
14.12.2018 14:00:00 -0,4 -5,7 -0,4 0,4 2,3 8,4 13 7 23 13 ENE 1021,1 10 0 0,0
14.12.2018 13:00:00 -0,4 -5,6 -0,3 0,4 2,3 8,4 16 9 28 15 E 1021,0 10 0 0,0
14.12.2018 12:00:00 -0,5 -5,9 -0,5 0,3 2,3 8,4 18 10 27 15 E 1021,3 10 0 0,0
14.12.2018 11:00:00 -0,5 -5,7 -0,5 0,3 2,3 8,4 13 7 28 15 ENE 1021,4 10 0 0,0
14.12.2018 10:00:00 -0,6 -5,8 -0,8 0,3 2,3 8,4 15 8 29 15 ENE 1021,0 10 0 0,0
14.12.2018 09:00:00 -0,8 -6,0 -1,0 0,3 2,3 8,4 15 8 29 16 ENE 1020,2 30 0 0,0
14.12.2018 08:00:00 -0,8 -6,1 -1,1 0,3 2,3 8,4 17 9 30 16 E 1019,2 30 0 0,0
14.12.2018 07:00:00 -0,9 -5,9 -1,2 0,3 2,4 8,5 18 10 30 16 ENE 1019,0 10 0 0,0
14.12.2018 06:00:00 -0,8 -6,1 -1,1 0,3 2,4 8,5 16 9 32 17 ENE 1018,8 10 0 0,0
14.12.2018 05:00:00 -0,8 -6,1 -1,1 0,3 2,4 8,5 19 10 36 20 ENE 1018,6 25 0 0,0
14.12.2018 04:00:00 -0,8 -6,0 -1,1 0,3 2,4 8,5 19 10 32 17 ENE 1018,7 25 0 0,0
14.12.2018 03:00:00 -0,8 -5,8 -1,1 0,3 2,4 8,5 16 9 31 17 NE 1018,6 10 0 0,0
14.12.2018 02:00:00 -0,8 -5,7 -1,1 0,4 2,4 8,5 16 9 33 18 ENE 1018,4 25 0 0,0
14.12.2018 01:00:00 -0,7 -5,8 -1,0 0,4 2,5 8,5 18 10 35 19 NE 1018,4 10 0 0,0
14.12.2018 00:00:00 -0,7 -5,7 -1,0 0,4 2,5 8,5 22 12 36 20 ENE 1018,4 25 0 0,0
13.12.2018 23:00:00 -0,7 -5,6 -1,0 0,4 2,5 8,6 21 11 35 19 ENE 1018,2 25 0 0,0
13.12.2018 22:00:00 -0,7 -5,6 -1,1 0,4 2,5 8,6 21 11 34 18 ENE 1018,0 10 0 0,0
13.12.2018 21:00:00 -0,8 -5,6 -1,1 0,5 2,5 8,6 18 10 34 18 NE 1017,9 25 0 0,0
13.12.2018 20:00:00 -0,8 -5,4 -1,1 0,5 2,5 8,6 21 11 34 18 NE 1017,6 10 0 0,0
13.12.2018 19:00:00 -0,7 -4,8 -1,0 0,5 2,6 8,6 18 10 28 15 NE 1017,6 10 0 0,0
13.12.2018 18:00:00 -0,6 -4,7 -0,9 0,5 2,6 8,6 15 8 37 20 ENE 1017,8 10 0 0,0
13.12.2018 17:00:00 -0,6 -4,7 -1,1 0,5 2,6 8,6 18 10 29 16 ENE 1017,5 20 0 0,0
13.12.2018 16:00:00 -0,2 -4,4 -0,6 0,5 2,6 8,6 21 11 38 20 ENE 1017,3 10 17 0,0
13.12.2018 15:00:00 0,2 -4,3 0,0 0,4 2,6 8,6 21 11 39 21 ENE 1016,9 10 27 0,0
13.12.2018 14:00:00 0,3 -4,3 0,3 0,4 2,6 8,7 21 12 41 22 ENE 1017,4 30 23 0,0
13.12.2018 13:00:00 0,1 -4,1 0,2 0,4 2,6 8,7 21 11 36 19 ENE 1017,5 10 5 0,0
13.12.2018 12:00:00 -0,5 -4,2 -0,4 0,3 2,7 8,7 21 11 37 20 ENE 1018,0 10 3 0,0
13.12.2018 11:00:00 -0,7 -3,7 -0,8 0,3 2,7 8,7 22 12 31 17 NE 1018,4 10 4 0,0
13.12.2018 10:00:00 -1,2 -3,7 -1,4 0,3 2,7 8,7 19 10 28 15 NE 1018,6 30 0 0,0
13.12.2018 09:00:00 -1,2 -4,1 -1,4 0,3 2,8 8,7 18 10 31 17 ENE 1018,8 30 0 0,0
13.12.2018 08:00:00 -1,2 -3,9 -1,7 0,3 2,9 8,7 18 10 31 17 ENE 1018,6 10 0 0,0
13.12.2018 07:00:00 -2,0 -4,5 -3,6 0,4 2,9 8,7 13 7 25 13 ENE 1019,1 10 0 0,0
13.12.2018 06:00:00 -1,4 -4,3 -2,6 0,5 3,0 8,8 16 9 33 18 ENE 1019,2 10 0 0,0
13.12.2018 05:00:00 -1,3 -4,2 -2,4 0,6 3,1 8,8 18 10 29 16 ENE 1019,6 10 0 0,0
13.12.2018 04:00:00 -1,4 -4,0 -2,7 0,8 3,1 8,8 13 7 24 13 ENE 1020,4 20 0 0,0
13.12.2018 03:00:00 -1,0 -3,4 -2,2 0,9 3,2 8,8 14 8 26 14 ENE 1020,7 20 0 0,0
13.12.2018 02:00:00 -0,7 -2,4 -1,8 1,0 3,2 8,8 16 9 26 14 ENE 1021,1 20 0 0,0
13.12.2018 01:00:00 -0,4 -1,9 -1,4 1,0 3,3 8,8 15 8 24 13 NE 1021,5 10 0 0,0
13.12.2018 00:00:00 -0,1 -1,6 -1,3 1,0 3,4 8,8 13 7 24 13 NE 1022,0 10 0 0,0
12.12.2018 23:00:00 1,0 -1,1 0,3 1,4 3,5 8,8 16 9 29 16 ENE 1021,9 10 0 0,0
12.12.2018 22:00:00 1,1 -1,0 0,5 1,5 3,5 8,9 15 8 21 11 ENE 1022,2 10 0 0,0
12.12.2018 21:00:00 1,1 -0,9 0,6 1,4 3,6 8,9 13 7 20 11 NE 1022,8 10 0 0,0
12.12.2018 20:00:00 1,0 -1,2 0,4 1,3 3,7 8,9 13 7 22 12 ENE 1022,9 10 0 0,0
12.12.2018 19:00:00 0,9 -0,9 -0,5 2,1 3,8 8,9 13 7 22 12 ENE 1023,1 10 0 0,0
12.12.2018 18:00:00 1,8 -0,5 1,4 2,4 3,9 8,9 9 5 18 10 NE 1023,1 20 0 0,0
12.12.2018 17:00:00 2,1 -0,8 1,5 2,7 3,9 8,9 13 7 27 14 NE 1023,1 10 5 0,0
12.12.2018 16:00:00 3,2 -1,3 2,8 3,0 3,8 8,9 13 7 26 14 ENE 1023,0 10 60 0,0
12.12.2018 15:00:00 3,6 -1,2 4,0 3,4 3,7 8,9 16 9 23 13 ENE 1023,1 10 47 0,0
12.12.2018 14:00:00 3,4 0,0 3,0 3,3 3,6 8,9 13 7 22 12 NE 1023,7 10 57 0,0
12.12.2018 13:00:00 2,7 0,5 2,4 3,4 3,4 9,0 11 6 22 12 NE 1024,4 10 60 0,0
12.12.2018 12:00:00 1,9 0,0 2,9 3,1 3,2 9,0 9 5 15 8 NE 1025,0 8 60 0,0
12.12.2018 11:00:00 0,0 -0,5 0,2 1,4 3,2 9,0 6 4 11 6 ENE 1025,7 3,0 29 0,0
12.12.2018 10:00:00 -1,1 -1,2 -0,8 1,1 3,2 9,0 4 2 8 4 ENE 1025,9 0,2 0 0,0
12.12.2018 09:00:00 -1,8 -1,8 -1,6 1,1 3,2 9,0 0 0 9 5 N 1025,9 0,1 0 0,0
12.12.2018 08:00:00 -1,6 -1,8 -1,6 1,1 3,3 9,0 4 2 8 4 - 1025,7 0,3 0 0,0
12.12.2018 07:00:00 -1,2 -1,3 -1,2 1,1 3,3 9,0 6 3 11 6 ENE 1025,4 0,5 0 0,0
12.12.2018 06:00:00 -1,5 -1,5 -1,3 1,1 3,3 9,0 5 3 8 4 E 1025,5 0,2 0 0,0
12.12.2018 05:00:00 -1,1 -1,4 -1,1 1,1 3,3 9,0 2 1 5 3 - 1025,5 0,2 0 0,0
12.12.2018 04:00:00 -1,0 -1,1 -0,9 1,1 3,4 9,1 0 0 5 3 N 1025,6 0,2 0 0,0
12.12.2018 03:00:00 -1,1 -1,4 -1,1 1,1 3,4 9,1 0 0 4 2 N 1025,7 0,2 0 0,0
12.12.2018 02:00:00 -0,8 -1,1 -0,9 1,1 3,4 9,1 2 1 4 2 - 1025,4 0,2 0 0,0
12.12.2018 01:00:00 -0,6 -1,0 -0,7 1,1 3,5 9,1 2 1 4 2 - 1025,7 0,2 0 0,0
12.12.2018 00:00:00 -0,7 -0,8 -0,7 1,2 3,5 9,1 2 1 5 3 W 1025,8 0,2 0 0,0
11.12.2018 23:00:00 -0,6 -1,1 -0,7 1,2 3,6 9,1 2 1 4 2 - 1025,7 0,3 0 0,0
11.12.2018 22:00:00 -0,3 -0,4 -0,6 1,2 3,6 9,1 4 2 5 3 N 1025,9 0,4 0 0,0
11.12.2018 21:00:00 -0,2 -0,5 -0,5 1,2 3,7 9,1 5 3 8 4 W 1025,9 0,2 0 0,0
11.12.2018 20:00:00 -0,1 -0,5 -0,4 1,3 3,7 9,1 4 2 9 5 - 1026,1 0,4 0 0,0
11.12.2018 19:00:00 -0,3 -0,8 -1,8 1,3 3,8 9,1 4 2 9 5 - 1026,0 5 0 0,0
11.12.2018 18:00:00 -0,4 -0,9 -2,9 1,4 3,9 9,1 5 3 11 6 SW 1025,8 6 0 0,0
11.12.2018 17:00:00 -0,3 -1,1 -2,6 1,6 4,0 9,2 4 2 13 7 - 1025,7 10 0 0,0
11.12.2018 16:00:00 0,9 -0,2 -1,4 2,4 3,9 9,2 8 4 18 10 WSW 1025,5 15 1 0,0
11.12.2018 15:00:00 1,7 0,0 1,4 3,0 3,7 9,2 13 7 18 10 WSW 1025,5 15 8 0,0
11.12.2018 14:00:00 1,0 -0,1 1,7 1,6 3,7 9,2 10 6 16 9 WSW 1026,1 4,5 0 0,0
11.12.2018 13:00:00 0,3 -0,1 0,8 1,0 3,7 9,2 13 7 16 9 WSW 1026,3 0,8 0 0,0
11.12.2018 12:00:00 0,2 -0,1 0,5 1,0 3,8 9,2 9 5 16 9 SSW 1026,7 0,3 0 0,0
11.12.2018 11:00:00 0,4 0,0 0,5 1,0 3,8 9,2 9 5 15 8 WSW 1026,8 1,8 4 0,0
11.12.2018 10:00:00 0,2 -0,3 -0,5 1,0 3,9 9,2 5 3 9 5 W 1026,6 5 29 0,0
11.12.2018 09:00:00 -1,2 -1,5 -3,0 1,0 4,0 9,2 8 5 11 6 WNW 1026,5 0,8 2 0,0
11.12.2018 08:00:00 -0,5 -0,9 -3,9 1,1 4,1 9,2 9 5 11 6 WSW 1026,5 9 0 0,0
11.12.2018 07:00:00 -0,6 -1,2 -3,7 1,3 4,2 9,2 8 4 14 8 WSW 1026,3 10 0 0,0
11.12.2018 06:00:00 -0,3 -0,9 -1,3 1,3 4,2 9,2 11 6 16 9 W 1026,4 10 0 0,0
11.12.2018 05:00:00 -0,5 -1,3 -2,2 1,4 4,3 9,2 9 5 16 8 WNW 1026,3 10 0 0,0
11.12.2018 04:00:00 0,7 -0,5 -0,6 1,5 4,4 9,2 15 8 21 11 W 1026,0 10 0 0,0
11.12.2018 03:00:00 1,1 -0,5 -0,4 1,5 4,6 9,2 15 8 25 13 W 1026,1 10 0 0,0
11.12.2018 02:00:00 0,9 -0,5 -0,7 1,6 4,7 9,2 11 6 16 9 W 1025,9 10 0 0,0
11.12.2018 01:00:00 1,2 -0,4 -0,5 1,6 4,9 9,2 13 7 18 10 WNW 1025,9 50 0 0,0

tt = Température de l'air
td = dewpoint
tt 5cm = Température de l'air 5cm
tt -5cm = Température de l'air -5cm
tt -20cm = Température de l'air -20cm
tt -100cm = Température de l'air -100cm
ff = Vitesse du vent
fx = gusts
dd = Direction du vent
ppp = reduced air pressure
vv = visibility
sd = Ensoleillement
rr = Quantités de précipitations

stations d'obs. à proximité